Regional Weather Roundup
Issued by NWS Kansas City/Pleasant Hill, MO

Home | Current Version | Previous Version | Text Only | Print | Product List | Glossary On
Versions: 1 2 3 4 5 6 7 8 9 10 11 12 13 14 15 16 17 18 19 20 21 22 23 24 25 26 27 28 29 30 31 32 33 34 35 36 37 38 39 40 41 42 43 44 45 46 47 48 49 50
000
ASUS43 KEAX 292210
RWREAX

WEATHER ROUNDUP FOR EASTERN KANSAS AND NORTHWEST MISSOURI
NATIONAL WEATHER SERVICE KANSAS CITY/PLEASANT HILL MO
500 PM CDT WED JUL 29 2015

KSZ040-057-103>105-MOZ028-029-037-043-292300-
...KANSAS CITY METROPOLITAN AREA...

CITY           SKY/WX    TMP DP  RH WIND       PRES   REMARKS
K.C. INTL      PTSUNNY   82  65  56 NE9       30.14R
K.C. DOWNTOWN  PTSUNNY   86  64  47 NE10      30.11S
LEES SUMMIT    PTSUNNY   85  65  51 E9        30.13F
OLATHE - IXD   PTSUNNY   85  65  51 NE9       30.14S
OLATHE - OJC   MOSUNNY   84  65  52 NE7       30.13S
LAWRENCE       PTSUNNY   83  68  60 NE6       30.13S

$$

MOZ001>008-011>017-020>025-030>033-038>040-044>046-053-054-292300-
...NORTHERN AND CENTRAL MISSOURI...

CITY           SKY/WX    TMP DP  RH WIND       PRES   REMARKS
ST. JOSEPH     CLOUDY    84  63  49 N3        30.14R
MOSBY          MOCLDY    84  63  48 NE6       30.12S
WARRENSBURG    MOSUNNY   81  66  61 NE6       30.11F
WHITEMAN AFB   MOSUNNY   85  67  55 NE9       30.11F
CLINTON        SUNNY     88  66  48 N13       30.10F HX  90
SEDALIA        SUNNY     86  63  45 NE9       30.13S
WARSAW         NOT AVBL
CHILLICOTHE      N/A     83  66  56 VRB3      30.13F
KIRKSVILLE     SUNNY     83  58  42 N8        30.13F

$$

MOZ041-047>049-056>058-063>065-088>090-097-292300-
...EASTERN AND SOUTHERN MISSOURI...

CITY           SKY/WX    TMP DP  RH WIND       PRES   REMARKS
ST. LOUIS INTL MOSUNNY   89  71  55 N13       30.04F HX  95
SPIRIT OF STL  PTSUNNY   88  73  61 NW9       30.03F HX  95
COLUMBIA       SUNNY     85  64  49 N12       30.11S
JEFFERSON CITY SUNNY     87  62  43 N9        30.08S
ROLLA          PTSUNNY   86  70  58 N13       30.08S HX  90
OSAGE BEACH    SUNNY     86  70  58 N8        30.10S HX  90
SPRINGFIELD    SUNNY     87  72  60 N16       30.08S HX  93
BRANSON        MOSUNNY   91  72  52 NW6       30.07F HX  98
JOPLIN         PTSUNNY   87  75  67 NE7G18    30.07R HX  96
WEST PLAINS    PTSUNNY   90  75  61 N10       30.06S HX 100

$$

IAZ060-094-KSZ022-034>040-054-083-096-NEZ052-066-093-292300-
...KANSAS...SOUTHEAST NEBRASKA AND IOWA...

CITY           SKY/WX    TMP DP  RH WIND       PRES   REMARKS
TOPEKA         PTSUNNY   83  70  64 N6        30.14S
MANHATTAN      PTSUNNY   83  71  67 E8        30.16S
EMPORIA        CLOUDY    83  69  62 NE15      30.13S
CHANUTE        MOSUNNY   89  71  55 NE13      30.09S HX  95
WICHITA        TSTM      78  71  79 N10       30.16R
OMAHA          PTSUNNY   82  56  40 NW7       30.14F
LINCOLN        PTSUNNY   83  52  34 N7        30.18R
FALLS CITY     PTSUNNY   83  65  54 CALM      30.16R
LAMONI           N/A    N/A N/A N/A MISG      30.14S
DES MOINES     MOSUNNY   85  54  34 W8        30.10F

$$



USA.gov is the U.S. government's official web portal to all federal, state and local government web resources and services.